Location: Chavannes
(47.1090°N, 0.2226°W)
Time: 05:26:42
(UTC+00:00)

YAOGAN 1 - Pass Details

Date: 16 October 2021
Orbit: 618 x 620 km, 97.9° (Epoch: 03 December)

Event Time Altitude Azimuth Distance (km) Brightness Sun altitude
Rises 18:03:14 0° 143° (SE) 2,886 5.7 -9.6°
Reaches altitude 10° 18:05:31 10° 135° (SE) 1,985 4.8 -10.0°
Maximum altitude 18:09:29 37° 69° (ENE) 973 3.1 -10.6°
Drops below altitude 10° 18:13:29 10° 2° (N) 1,999 5.1 -11.3°
Sets 18:15:48 0° 354° (N) 2,910 6.1 -11.7°
